Milwaukee, WI

9:37 PM CDT on May 27, 2017 (GMT -0500)
Gen Mitchell International

Weather History for KMKE - September, 2011

Change the Weather History Date:

Wednesday, September 21, 2011

  Actual Average Record
Temperature  
Mean Temperature 62 °F 61 °F  
Max Temperature 69 °F 69 °F 90 °F (1920)
Min Temperature 55 °F 53 °F 33 °F (1962)
Degree Days  
Heating Degree Days 3 5  
Month to date heating degree days 77 61  
Since 1 July heating degree days 77 87  
Cooling Degree Days 0 1  
Month to date cooling degree days 62 61  
Year to date cooling degree days 786 626  
Growing Degree Days 13 (Base 50)    
Moisture  
Dew Point 49 °F    
Average Humidity 64    
Maximum Humidity 84    
Minimum Humidity 44    
Precipitation  
Precipitation T in 0.11 in 2.71 in (1947)
Month to date precipitation 1.05 2.23  
Year to date precipitation 24.34 26.41  
Snow  
Snow 0.00 in 0.00 in 0.00 in ()
Month to date snowfall 0.0 0.0  
Since 1 July snowfall 0.0 0.0  
Since 1 September snowfall 0.0 0.0  
Snow Depth 0.00 in    
Sea Level Pressure  
Sea Level Pressure 29.90 in    
Wind  
Wind Speed 12 mph (WSW)    
Max Wind Speed 25 mph    
Max Gust Speed 33 mph    
Visibility 10 miles    
Events      
T = Trace of Precipitation, MM = Missing Value Source: NWS Daily Summary

Daily Weather History Graph

Daily Weather History Graph

Search for Another Location

Airport or City:

Trip Planner

Search our weather history database for the weather conditions in past years. The results will help you decide how hot, cold, wet, or windy it might be!

Date:

Astronomy

Sep. 21, 2011 Rise Set
Actual Time 6:37 AM CDT 6:51 PM CDT
Civil Twilight 6:09 AM CDT 7:19 PM CDT
Nautical Twilight 5:35 AM CDT 7:52 PM CDT
Astronomical Twilight 5:01 AM CDT 8:26 PM CDT
Moon No Moon Rise 3:09 PM CDT (9/21)
Length of Visible Light 13h 10m
Length of Day
12h 13m
Last Quarter, 38% of the Moon is Illuminated
Sep 21
Last Quarter
Sep 27
New
Oct 3
First Quarter
Oct 11
Full
Oct 19
Last Quarter

Hourly Weather History & Observations

Time (CDT) Temp. Dew Point Humidity Pressure Visibility Wind Dir Wind Speed Gust Speed Precip Events Conditions
12:52 AM 64.9 °F 54.0 °F 68% 29.87 in 10.0 mi SSW 11.5 mph - N/A   Mostly Cloudy
1:52 AM 64.4 °F 53.6 °F 68% 29.87 in 10.0 mi SSW 10.4 mph - N/A   Scattered Clouds
2:52 AM 64.0 °F 54.0 °F 70% 29.85 in 10.0 mi SW 15.0 mph - N/A   Scattered Clouds
3:52 AM 62.1 °F 54.0 °F 75% 29.85 in 10.0 mi SW 13.8 mph - N/A   Mostly Cloudy
4:52 AM 61.0 °F 55.0 °F 81% 29.85 in 10.0 mi SW 9.2 mph - 0.00 in   Mostly Cloudy
5:52 AM 61.0 °F 53.1 °F 75% 29.85 in 10.0 mi WSW 6.9 mph - N/A   Mostly Cloudy
6:52 AM 60.1 °F 50.0 °F 69% 29.86 in 10.0 mi WSW 8.1 mph - N/A   Mostly Cloudy
7:52 AM 59.0 °F 48.0 °F 67% 29.89 in 10.0 mi SW 9.2 mph - N/A   Scattered Clouds
8:52 AM 61.0 °F 46.0 °F 58% 29.88 in 10.0 mi SW 13.8 mph 20.7 mph N/A   Scattered Clouds
9:52 AM 63.0 °F 45.0 °F 52% 29.89 in 10.0 mi WSW 15.0 mph 23.0 mph N/A   Scattered Clouds
10:52 AM 64.9 °F 46.0 °F 50% 29.88 in 10.0 mi WSW 12.7 mph 23.0 mph N/A   Scattered Clouds
11:52 AM 66.0 °F 45.0 °F 47% 29.87 in 10.0 mi WSW 18.4 mph 25.3 mph N/A   Scattered Clouds
12:52 PM 66.9 °F 45.0 °F 45% 29.88 in 10.0 mi WSW 19.6 mph 28.8 mph N/A   Mostly Cloudy
1:52 PM 69.1 °F 46.0 °F 44% 29.88 in 10.0 mi SW 21.9 mph 33.4 mph N/A   Mostly Cloudy
2:52 PM 66.2 °F 44.6 °F 46% 29.89 in 10.0 mi WSW 19.6 mph 33.4 mph N/A   Mostly Cloudy
3:52 PM 64.4 °F 46.4 °F 52% 29.90 in 10.0 mi West 16.1 mph 25.3 mph N/A   Mostly Cloudy
4:52 PM 64.9 °F 46.0 °F 50% 29.92 in 10.0 mi WSW 16.1 mph 25.3 mph N/A   Mostly Cloudy
5:52 PM 64.0 °F 46.0 °F 52% 29.93 in 10.0 mi WSW 11.5 mph - N/A   Mostly Cloudy
6:52 PM 63.0 °F 46.9 °F 56% 29.95 in 10.0 mi WSW 9.2 mph 17.3 mph N/A   Mostly Cloudy
7:52 PM 61.0 °F 48.0 °F 62% 29.97 in 10.0 mi WSW 9.2 mph - N/A   Mostly Cloudy
8:52 PM 60.8 °F 48.2 °F 63% 29.98 in 10.0 mi SW 8.1 mph - N/A   Mostly Cloudy
9:52 PM 60.1 °F 48.9 °F 67% 29.99 in 10.0 mi WSW 8.1 mph - N/A   Scattered Clouds
10:52 PM 57.9 °F 48.0 °F 70% 29.99 in 10.0 mi WSW 8.1 mph - N/A   Partly Cloudy
11:52 PM 57.0 °F 48.0 °F 72% 29.99 in 10.0 mi WSW 6.9 mph - N/A   Partly Cloudy